Regional Weather Roundup
Issued by NWS State College, PA

Home | Current Version | Previous Version | Text Only | Print | Product List | Glossary Off
Versions: 1 2 3 4 5 6 7 8 9 10 11 12 13 14 15 16 17 18 19 20 21 22 23 24 25 26 27 28 29 30 31 32 33 34 35 36 37 38 39 40 41 42 43 44 45 46 47 48 49 50

000
ASUS41 KCTP 031610
RWRCTP

REGIONAL WEATHER ROUNDUP
NATIONAL WEATHER SERVICE STATE COLLEGE PA
1200 PM EDT FRI JUL 03 2015

Note: "fair" indicates few or no clouds below 12,000 feet with no
significant weather and/or obstructions to visibility.

* = STATION THAT DOES NOT REPORT PRECIPITATION /E.G. RAIN...SNOW...ETC/
    THUNDER OR FOG.

PAZ002>004-007>009-013>016-020>023-029>032-031700-
WESTERN PENNSYLVANIA

CITY           SKY/WX    TMP DP  RH WIND       PRES   REMARKS
ERIE           SUNNY     71  51  49 N10       29.98F
MEADVILLE      MOSUNNY   70  52  52 E8        30.00S
FRANKLIN*      MOSUNNY   70  55  60 E5        30.01S
NEW CASTLE     FAIR      74  60  61 CALM      29.98F
BEAVER COUNTY  MOSUNNY   73  55  53 CALM      29.98S
BUTLER*        PTSUNNY   73  55  53 SE9       29.99F
PITTSBURGH INT CLOUDY    74  55  51 E3        29.96F
PITTSBURGH     MOSUNNY   74  54  49 VRB6      29.96F
INDIANA*       MOSUNNY   73  63  68 E6G13     30.02S
LATROBE        MOSUNNY   75  61  60 VRB7      29.98S
WASHINGTON CO* NOT AVBL
$$

PAZ004>006-010>012-017>019-024>028-033>037-041-042-045-046-049>053-031700-
CENTRAL PENNSYLVANIA

CITY           SKY/WX    TMP DP  RH WIND       PRES   REMARKS
BRADFORD       SUNNY     68  52  56 E5        30.02F
DUBOIS         MOSUNNY   72  57  59 MISG      30.00F
CLEARFIELD     PTSUNNY   72  59  63 SE6       30.02S
JOHNSTOWN      MOSUNNY   67  59  75 SE10      30.03R
ALTOONA        CLOUDY    70  61  73 VRB5      30.03S
STATE COLLEGE  PTSUNNY   70  59  68 CALM      30.03R
WILLIAMSPORT   SUNNY     72  49  44 SE6       30.00S
SELINSGROVE    SUNNY     75  54  47 VRB5      30.01F
FT INDIANTOWN  SUNNY     75  59  57 VRB6      30.00F
CAPITAL CITY   SUNNY     75  59  57 E8        30.00F
HARRISBURG     MOSUNNY   77  62  59 CALM      29.99F
YORK           MOSUNNY   77  63  61 E3        30.00S
$$

PAZ038>040-043-044-047-048-054-055-060>062-067>071-031700-
EASTERN PENNSYLVANIA

CITY           SKY/WX    TMP DP  RH WIND       PRES   REMARKS
SCRANTON       SUNNY     73  48  41 CALM      30.02F
MOUNT POCONO   SUNNY     70  48  45 CALM      30.05S
ALLENTOWN      SUNNY     74  52  46 VRB3      30.01F
QUAKERTOWN*    SUNNY     75  55  50 E3        30.02F
READING        SUNNY     77  57  50 VRB3      29.99F
LANCASTER      SUNNY     75  61  61 E3        30.00F
COATESVILLE    SUNNY     75  63  64 SE6       30.02F
POTTSTOWN      SUNNY     75  59  57 VRB5      30.01F
BLUE BELL      SUNNY     79  63  57 CALM      29.99F
DOYLESTOWN     SUNNY     77  56  48 VRB5      30.00F
WILLOW GROVE   NOT AVBL
NORTH PHILA    MOSUNNY   78  56  46 CALM      30.01F
PHILADELPHIA   PTSUNNY   80  60  50 E5        30.00F
$$



USA.gov is the U.S. government's official web portal to all federal, state and local government web resources and services.